Location: ????????
(55.5667°N, 37.5833°E)
Time: 11:15:53
(UTC+00:00)

Cosmos 1110 Rocket - Pass Details

Date: 14 April 2026
Orbit: 747 x 777 km, 74.0° (Epoch: 10 May)

Event Time Altitude Azimuth Distance (km) Brightness Sun altitude
Exits shadow 23:50:48 31° 243° (WSW) 1,329 4.7 -18.4°
Maximum altitude 23:53:06 54° 305° (NW) 937 4.4 -18.2°
Drops below altitude 10° 23:58:18 10° 23° (NNE) 2,336 7.7 -17.8°
Sets 00:00:46 0° 28° (NNE) 3,269 8.9 -17.6°
